Change the Weather History Date:

Wednesday, November 27, 2013

  Actual Average (KCAK) Record (KCAK)
Temperature  
Mean Temperature 26 °F 37 °F  
Max Temperature 31 °F 44 °F 71 °F (1990)
Min Temperature 22 °F 30 °F 7 °F (1930)
Degree Days  
Heating Degree Days 38 28  
Month to date heating degree days 618  
Since 1 July heating degree days 1173  
Cooling Degree Days 0 0  
Month to date cooling degree days 0  
Year to date cooling degree days 652  
Moisture  
Dew Point 22 °F    
Average Humidity 82    
Maximum Humidity 100    
Minimum Humidity 62    
Precipitation  
Precipitation 0.00 in 0.11 in 1.68 in (1993)
Month to date precipitation 2.98  
Year to date precipitation 36.46  
Snow  
Snow 0.00 in 0.20 in - ()
Month to date snowfall 2.5  
Since 1 July snowfall 2.9  
Since 1 September snowfall 2.9  
Snow Depth -    
Sea Level Pressure  
Sea Level Pressure 29.87 in    
Wind  
Wind Speed 8 mph (WNW)    
Max Wind Speed 17 mph    
Max Gust Speed 25 mph    
Visibility 6 miles    
Events Rain , Snow    
T = Trace of Precipitation, MM = Missing Value Source: NWS Daily Summary

Daily Weather History Graph

Daily Weather History Graph

Search for Another Location

Airport or City:

Trip Planner

Search our weather history database for the weather conditions in past years. The results will help you decide how hot, cold, wet, or windy it might be!

Date:

Astronomy

Nov. 27, 2013 Rise Set
Actual Time 7:27 AM EST 4:58 PM EST
Civil Twilight 6:56 AM EST 5:28 PM EST
Nautical Twilight 6:22 AM EST 6:02 PM EST
Astronomical Twilight 5:49 AM EST 6:35 PM EST
Moon 1:24 AM EST (11/27) 1:37 PM EST (11/27)
Length of Visible Light 10h 31m
Length of Day
9h 31m
Waning Crescent, 32% of the Moon is Illuminated
Nov 27
Waning Crescent
Dec 2
New
Dec 9
First Quarter
Dec 17
Full
Dec 25
Last Quarter

Hourly Weather History & Observations

Time (EST) Temp. Windchill Dew Point Humidity Pressure Visibility Wind Dir Wind Speed Gust Speed Precip Events Conditions
12:14 AM 30.7 °F 26.0 °F 30.9 °F 100% 29.81 in 2.5 mi WNW 4.6 mph - N/A Snow Light Snow
12:34 AM - - - N/A% 29.80 in 2.5 mi NW 5.8 mph - N/A   Unknown
12:55 AM - - - N/A% 29.78 in 1.8 mi NW 6.9 mph - N/A   Unknown
1:14 AM - - - N/A% 29.78 in 2.5 mi NW 5.8 mph - N/A   Unknown
1:34 AM - - - N/A% 29.78 in 5.0 mi NW 4.6 mph - N/A   Unknown
1:55 AM - - - N/A% 29.77 in 10.0 mi NNW 4.6 mph - N/A   Overcast
2:14 AM 31.1 °F 27.7 °F 31.1 °F 100% 29.78 in 10.0 mi NW 3.5 mph - N/A   Overcast
2:34 AM 31.1 °F 27.7 °F 31.1 °F 100% 29.78 in 7.0 mi NW 3.5 mph - N/A   Unknown
2:54 AM 31.1 °F 25.4 °F 31.1 °F 100% 29.77 in 7.0 mi NW 5.8 mph - N/A   Unknown
3:14 AM 31.1 °F 25.4 °F 31.5 °F 100% 29.77 in 7.0 mi NW 5.8 mph - N/A   Unknown
3:34 AM 31.5 °F 25.8 °F 31.6 °F 100% 29.76 in 7.0 mi NW 5.8 mph - N/A   Unknown
3:54 AM 31.6 °F 25.1 °F 31.8 °F 100% 29.76 in 7.0 mi NW 6.9 mph - N/A   Overcast
4:14 AM 31.6 °F 26.0 °F 31.8 °F 100% 29.77 in 10.0 mi NNW 5.8 mph - N/A   Overcast
4:34 AM 31.6 °F 28.3 °F 31.8 °F 100% 29.77 in 10.0 mi NW 3.5 mph - N/A   Overcast
4:55 AM 31.5 °F 25.8 °F 30.9 °F 98% 29.77 in 10.0 mi NW 5.8 mph - N/A   Overcast
5:14 AM 31.5 °F 26.8 °F 30.6 °F 96% 29.77 in 10.0 mi NW 4.6 mph - N/A   Overcast
5:34 AM 31.1 °F 26.4 °F 30.9 °F 99% 29.77 in 10.0 mi NW 4.6 mph - N/A   Overcast
5:55 AM 31.3 °F 26.6 °F 31.1 °F 99% 29.78 in 10.0 mi WNW 4.6 mph - N/A   Overcast
6:15 AM 31.5 °F 26.8 °F 31.6 °F 100% 29.77 in 7.0 mi WNW 4.6 mph - N/A Snow Light Snow
6:34 AM 31.1 °F 25.4 °F 31.1 °F 100% 29.78 in 10.0 mi NNW 5.8 mph - N/A Snow Light Snow
6:46 AM 31.1 °F 22.4 °F 30.4 °F 97% 29.78 in 7.0 mi NW 10.4 mph 18.4 mph N/A Rain Light Freezing Rain
7:05 AM 30.2 °F 23.4 °F 30.2 °F 100% 29.79 in 10.0 mi WNW 6.9 mph - N/A   Overcast
7:25 AM 30.2 °F 21.9 °F 30.2 °F 100% 29.80 in 10.0 mi NW 9.2 mph 16.1 mph N/A   Overcast
7:45 AM 30.2 °F 21.3 °F 28.4 °F 93% 29.81 in 10.0 mi NW 10.4 mph - N/A   Overcast
8:05 AM 28.4 °F 18.0 °F 28.4 °F 100% 29.81 in 10.0 mi WNW 12.7 mph 17.3 mph N/A   Overcast
8:28 AM 28.6 °F 19.3 °F 27.9 °F 97% 29.82 in 5.0 mi NW 10.4 mph - N/A Snow Light Snow
8:35 AM 28.4 °F 20.4 °F 27.7 °F 97% 29.82 in 3.0 mi NW 8.1 mph 18.4 mph N/A Snow Light Snow
8:54 AM 28.2 °F 18.9 °F 27.3 °F 96% 29.82 in 2.0 mi NW 10.4 mph - N/A Snow Light Snow
9:14 AM 27.9 °F 18.4 °F 27.3 °F 98% 29.82 in 1.5 mi WNW 10.4 mph 16.1 mph N/A Snow Light Snow
9:34 AM 27.5 °F 17.4 °F 25.7 °F 93% 29.83 in 2.0 mi NW 11.5 mph 18.4 mph N/A Snow Light Snow
9:53 AM 27.0 °F 16.7 °F 24.3 °F 90% 29.84 in 2.0 mi NW 11.5 mph 23.0 mph N/A Snow Light Snow
10:05 AM 26.6 °F 16.8 °F 24.8 °F 93% 29.85 in 1.2 mi WNW 10.4 mph 19.6 mph N/A   Overcast
10:25 AM 26.6 °F 18.2 °F 24.8 °F 93% 29.85 in 1.5 mi WNW 8.1 mph 17.3 mph N/A   Overcast
10:45 AM 26.6 °F 17.5 °F 23.0 °F 86% 29.85 in 1.2 mi WNW 9.2 mph 18.4 mph N/A   Overcast
11:05 AM 26.6 °F 15.7 °F 23.0 °F 86% 29.85 in 1.2 mi WNW 12.7 mph 23.0 mph N/A   Overcast
11:25 AM 24.8 °F 13.4 °F 21.2 °F 86% 29.84 in 2.0 mi West 12.7 mph 21.9 mph N/A   Overcast
11:45 AM 26.6 °F 15.7 °F 19.4 °F 74% 29.83 in 5.0 mi WNW 12.7 mph 18.4 mph N/A   Overcast
12:05 PM 24.8 °F 12.9 °F 19.4 °F 80% 29.83 in 1.8 mi WNW 13.8 mph 19.6 mph N/A   Overcast
12:25 PM 24.8 °F 12.9 °F 19.4 °F 80% 29.83 in 7.0 mi WNW 13.8 mph 18.4 mph N/A   Overcast
12:45 PM 24.8 °F 14.6 °F 17.6 °F 74% 29.83 in 2.0 mi WNW 10.4 mph 19.6 mph N/A   Overcast
1:05 PM 24.8 °F 11.9 °F 17.6 °F 74% 29.83 in 4.0 mi WNW 16.1 mph 21.9 mph N/A   Overcast
1:25 PM 24.8 °F 14.0 °F 15.8 °F 69% 29.83 in 1.8 mi WNW 11.5 mph 24.2 mph N/A   Overcast
1:45 PM 24.8 °F 12.9 °F 15.8 °F 69% 29.83 in 7.0 mi West 13.8 mph 21.9 mph N/A   Overcast
2:05 PM 24.8 °F 14.0 °F 14.0 °F 64% 29.84 in 7.0 mi West 11.5 mph 24.2 mph N/A   Overcast
2:25 PM 24.8 °F 13.4 °F 14.0 °F 64% 29.84 in 7.0 mi West 12.7 mph 25.3 mph N/A   Overcast
2:45 PM 24.8 °F 14.6 °F 14.0 °F 64% 29.85 in 10.0 mi West 10.4 mph 19.6 mph N/A   Overcast
3:05 PM 24.8 °F 11.5 °F 14.0 °F 64% 29.87 in 5.0 mi West 17.3 mph 24.2 mph N/A   Overcast
3:25 PM 24.8 °F 11.5 °F 14.0 °F 64% 29.88 in 7.0 mi West 17.3 mph 24.2 mph N/A   Overcast
3:45 PM 23.0 °F 9.6 °F 14.0 °F 68% 29.89 in 7.0 mi West 16.1 mph 23.0 mph N/A   Overcast
4:00 PM 23.9 °F 14.2 °F 15.4 °F 70% 29.90 in 3.0 mi WNW 9.2 mph 18.4 mph N/A Snow Light Snow
4:15 PM 24.3 °F 13.3 °F 14.9 °F 68% 29.91 in 5.0 mi West 11.5 mph 20.7 mph N/A Snow Light Snow
4:34 PM 23.2 °F 12.0 °F 17.4 °F 79% 29.92 in 2.5 mi West 11.5 mph 19.6 mph N/A Snow Light Snow
4:54 PM 23.0 °F 11.7 °F 18.0 °F 81% 29.92 in 2.5 mi West 11.5 mph 18.4 mph N/A Snow Light Snow
5:15 PM 23.2 °F 10.8 °F 18.1 °F 81% 29.93 in 2.0 mi West 13.8 mph 19.6 mph N/A Snow Light Snow
5:34 PM 23.4 °F 12.8 °F 18.1 °F 80% 29.95 in 2.0 mi West 10.4 mph - N/A Snow Light Snow
5:55 PM 23.4 °F 12.2 °F 17.4 °F 78% 29.95 in 3.0 mi West 11.5 mph 16.1 mph N/A Snow Light Snow
6:14 PM 23.5 °F 12.4 °F 16.7 °F 75% 29.96 in 10.0 mi WNW 11.5 mph 16.1 mph N/A   Overcast
6:34 PM 23.7 °F 11.5 °F 17.6 °F 77% 29.97 in 2.0 mi WNW 13.8 mph 21.9 mph N/A Snow Light Snow
6:54 PM 23.7 °F 12.1 °F 16.9 °F 75% 29.98 in 3.0 mi WNW 12.7 mph 21.9 mph N/A Snow Light Snow
7:15 PM 23.9 °F 12.3 °F 14.2 °F 66% 29.99 in 10.0 mi WNW 12.7 mph 20.7 mph N/A   Overcast
7:34 PM 23.4 °F 12.2 °F 15.8 °F 73% 30.00 in 3.0 mi WNW 11.5 mph 25.3 mph N/A Snow Light Snow
7:54 PM 23.0 °F 13.1 °F 15.3 °F 72% 30.01 in 5.0 mi WNW 9.2 mph 19.6 mph N/A Snow Light Snow
8:14 PM 23.0 °F 11.7 °F 15.3 °F 72% 30.01 in 5.0 mi WNW 11.5 mph 21.9 mph N/A Snow Light Snow
8:34 PM 23.0 °F 11.7 °F 15.6 °F 73% 30.02 in 7.0 mi WNW 11.5 mph 18.4 mph N/A Snow Light Snow
8:53 PM 22.6 °F 10.1 °F 15.8 °F 75% 30.03 in 10.0 mi WNW 13.8 mph 19.6 mph N/A Snow Light Snow
9:14 PM 22.8 °F 12.9 °F 15.8 °F 74% 30.04 in 7.0 mi WNW 9.2 mph 18.4 mph N/A Snow Light Snow
9:34 PM 23.2 °F 11.4 °F 14.0 °F 68% 30.04 in 10.0 mi West 12.7 mph 20.7 mph N/A Snow Light Snow
9:55 PM 23.4 °F 10.6 °F 13.3 °F 65% 30.05 in 10.0 mi WNW 15.0 mph - N/A   Overcast
10:15 PM 23.4 °F 11.1 °F 13.1 °F 65% 30.06 in 10.0 mi West 13.8 mph 20.7 mph N/A   Overcast
10:34 PM 23.2 °F 9.8 °F 13.3 °F 66% 30.06 in 10.0 mi WNW 16.1 mph 19.6 mph N/A   Overcast
10:54 PM 23.4 °F 12.2 °F 13.1 °F 65% 30.07 in 10.0 mi West 11.5 mph - N/A   Overcast
11:14 PM 23.4 °F 12.2 °F 12.9 °F 64% 30.08 in 10.0 mi West 11.5 mph 18.4 mph N/A   Overcast
11:35 PM 23.4 °F 11.6 °F 12.2 °F 62% 30.09 in 10.0 mi West 12.7 mph 19.6 mph N/A   Overcast
11:54 PM 23.2 °F 12.0 °F 12.4 °F 63% 30.09 in 10.0 mi West 11.5 mph - N/A   Overcast